Regional Weather Roundup
Issued by NWS

Home | Current Version | Previous Version | Text Only | Print | Product List | Glossary Off
Versions: 1 2 3 4 5 6 7 8 9 10 11 12 13 14 15 16 17 18 19 20 21 22 23 24 25 26 27

000
ASUS45 KPSR 271210
RWRAZ

ARIZONA HOURLY REGIONAL WEATHER ROUNDUP
NATIONAL WEATHER SERVICE PHOENIX AZ
500 AM MST SAT AUG 27 2016

NOTE: FAIR INDICATES FEW OR NO CLOUDS BELOW 12,000 FEET WITH NO
SIGNIFICANT WEATHER AND/OR OBSTRUCTIONS TO VISIBILITY.

AZZ001>003-036-271300-
NORTHWEST ARIZONA

CITY           SKY/WX    TMP DP  RH WIND       PRES   REMARKS
BULLHEAD CITY  MOCLDY    77  64  65 SW7       29.89R
KINGMAN        CLOUDY    66  54  65 SE23      30.05R
                                      6HR PCP:  0.06;

$$

AZZ004>008-015-016-018-271300-
NORTH CENTRAL ARIZONA

CITY           SKY/WX    TMP DP  RH WIND       PRES   REMARKS
GRAND CANYON   LGT RAIN  55  50  83 W7        30.28R
6HR MIN TEMP:  52; 6HR MAX TEMP:  58; 6HR PCP:  0.01;

PRESCOTT       LGT RAIN  56  56 100 NW9       30.18R
6HR MIN TEMP:  55; 6HR MAX TEMP:  62; 6HR PCP:  0.31;

FLAGSTAFF      LGT RAIN  49  49 100 NW3       30.24S
6HR MIN TEMP:  47; 6HR MAX TEMP:  59; 6HR PCP:  0.04;

PAYSON         MOCLDY    63  50  63 E3        30.16R
PAGE           CLOUDY    63  54  72 CALM      30.11R
6HR MIN TEMP:  63; 6HR MAX TEMP:  67; 6HR PCP: TRACE;

$$

AZZ009>014-017-271300-
NORTHEAST ARIZONA

CITY           SKY/WX    TMP DP  RH WIND       PRES   REMARKS
WINSLOW        CLOUDY    56  52  86 SE5       30.14R
6HR MIN TEMP:  56; 6HR MAX TEMP:  60;

SAINT JOHNS    PTCLDY    52  48  86 CALM      30.18S
6HR MIN TEMP:  51; 6HR MAX TEMP:  58;

WINDOW ROCK    PTCLDY    49  45  86 CALM      30.25S
6HR MIN TEMP:  49; 6HR MAX TEMP:  57;

SHOW LOW       PTCLDY    48  45  87 S5        30.22F
$$

AZZ023-271300-
GREATER PHOENIX AREA

CITY           SKY/WX    TMP DP  RH WIND       PRES   REMARKS
PHOENIX        MOCLDY    86  56  35 N6        29.86R
6HR MIN TEMP:  83; 6HR MAX TEMP:  89;

BUCKEYE        CLOUDY    81  59  47 NW3       29.88R
LUKE AFB       MOCLDY    84  57  39 SW7       29.85R
                                      6HR PCP: TRACE;

DEER VALLEY    MOCLDY    83  57  41 S12       29.88R THUNDER
6HR MIN TEMP:  80; 6HR MAX TEMP:  86;

SCOTTSDALE     LGT RAIN  80  61  52 SW6       29.90R
6HR MIN TEMP:  80; 6HR MAX TEMP:  89; 6HR PCP: TRACE;

MESA-GATEWAY   MOCLDY    77  59  53 SE8       29.90R
$$

AZZ027-028-271300-
SOUTHWEST MARICOPA COUNTY AND PINAL COUNTY

CITY           SKY/WX    TMP DP  RH WIND       PRES   REMARKS
CASA GRANDE    CLEAR     77  50  38 CALM      29.92R
6HR MIN TEMP:  77; 6HR MAX TEMP:  86;

GILA BEND      FAIR      81  46  29 E1        29.85R
6HR MIN TEMP:  77; 6HR MAX TEMP:  87; 6HR PCP: TRACE;

$$

AZZ503-504-507>509-271300-
SOUTHEAST ARIZONA

CITY           SKY/WX    TMP DP  RH WIND       PRES   REMARKS
TUCSON         MOCLDY    74  55  51 SE5       30.00S
6HR MIN TEMP:  73; 6HR MAX TEMP:  79;

DAVIS-MONTHAN  MOCLDY    73  57  57 SE7       29.99R
6HR MIN TEMP:  71; 6HR MAX TEMP:  75;

NOGALES        MOCLDY    63  52  67 NE3       30.09R
6HR MIN TEMP:  62; 6HR MAX TEMP:  69;

SIERRA VISTA   MOCLDY    65  52  62 S3        30.13S
6HR MIN TEMP:  64; 6HR MAX TEMP:  71;

DOUGLAS        MOCLDY    63  58  83 NE5       30.10S
6HR MIN TEMP:  62; 6HR MAX TEMP:  68;

SAFFORD        PTCLDY    67  55  65 E6        30.02R
6HR MIN TEMP:  64; 6HR MAX TEMP:  68;

$$

AZZ020-021-025-026-031-271300-
SOUTHWEST ARIZONA

CITY           SKY/WX    TMP DP  RH WIND       PRES   REMARKS
YUMA           CLEAR     84  56  38 E6        29.79R
6HR MIN TEMP:  83; 6HR MAX TEMP:  85;

$$

CAZ031-033-041-043-047-048-061-271300-
SOUTHERN CALIFORNIA

CITY           SKY/WX    TMP DP  RH WIND       PRES   REMARKS
DOWNTOWN L.A.  CLOUDY    66  58  75 CALM      29.95S
6HR MIN TEMP:  64; 6HR MAX TEMP:  67;

L.A. AIRPORT   CLOUDY    66  57  72 S5        29.96R
6HR MIN TEMP:  65; 6HR MAX TEMP:  66;

SAN DIEGO      CLOUDY    68  57  68 NW8       29.97R
6HR MIN TEMP:  67; 6HR MAX TEMP:  68;

BURBANK        CLOUDY    62  56  80 CALM      29.96R
6HR MIN TEMP:  61; 6HR MAX TEMP:  63;

ONTARIO        CLOUDY    62  56  80 W3        29.96S
6HR MIN TEMP:  60; 6HR MAX TEMP:  63;

RIVERSIDE      CLOUDY    63  56  78 W3        29.96S
6HR MIN TEMP:  61; 6HR MAX TEMP:  65;

PALM SPRINGS   CLEAR     77  50  38 W5        29.82R
6HR MIN TEMP:  76; 6HR MAX TEMP:  83;

EL CENTRO NAS  CLEAR     74  61  63 SE3       29.80R
6HR MIN TEMP:  72; 6HR MAX TEMP:  87;

IMPERIAL       CLEAR     79  61  53 SE5       29.77R
6HR MIN TEMP:  79; 6HR MAX TEMP:  89;

BLYTHE         PTCLDY    81  56  42 E6        29.82R
6HR MIN TEMP:  81; 6HR MAX TEMP:  93;

$$

NVZ020-UTZ003-271300-
SOUTHERN NEVADA-UTAH

CITY           SKY/WX    TMP DP  RH WIND       PRES   REMARKS
LAS VEGAS      MOCLDY    75  50  41 NE17      30.00R
6HR MIN TEMP:  75; 6HR MAX TEMP:  85;

SALT LAKE CITY PTCLDY    63  36  36 SE7       30.04R
6HR MIN TEMP:  62; 6HR MAX TEMP:  69;

$$

NMZ009-TXZ055-271300-
NEW MEXICO-WEST TEXAS

CITY           SKY/WX    TMP DP  RH WIND       PRES   REMARKS
ALBUQUERQUE    PTCLDY    60  49  66 E8        30.17F
6HR MIN TEMP:  60; 6HR MAX TEMP:  69;

EL PASO        MOCLDY    71  60  68 N7        30.09R
6HR MIN TEMP:  71; 6HR MAX TEMP:  73;

$$


........................KEY........................
SKY/WX - SKY CONDITION/WEATHER
TMP    - TEMPERATURE IN FAHRENHEIT
DP     - DEW POINT IN FAHRENHEIT
RH     - RELATIVE HUMIDITY IN PERCENT
WIND   - DIRECTION AND SPEED IN MILES PER HOUR (MPH)
VRB    - VARIABLE WIND DIRECTION
PRES   - MEAN SEA LEVEL PRESSURE IN INCHES OF MERCURY
         F - FALLING PRESSURE   R - RISING PRESSURE
         S - STEADY PRESSURE
VSB    - VISIBILITY IN MILES
HX     - HEAT INDEX IN FAHRENHEIT
WCI    - WIND CHILL INDEX IN FAHRENHEIT
TC     - TEMPERATURE IN CELSIUS WHICH IS ALSO KNOWN AS
         TEMPERATURE IN CENTIGRADE
AFB    - AIR FORCE BASE
         LUKE AFB IS LUKE AIR FORCE BASE
         DAVIS-MONTHAN IS DAVIS-MONTHAN AIR FORCE BASE
NAS    - NAVAL AIR STATION
         EL CENTRO NAS IS EL CENTRO NAVAL AIR STATION
N/A    - NOT AVAILABLE





USA.gov is the U.S. government's official web portal to all federal, state and local government web resources and services.